Wind_Speed
75 72 67 66 68 65 67 67 66 62 64 66 71 76 72 68 68 67 65 66 63 62 51 54 53 51 49 46 47 49 49 43 41 39 40 38 41 40 37 33 27 27 29 30
80 80 73 70 72 69 70 70 70 67 68 65 62 68 81 75 66 63 62 61 59 61 59 55 53 54 54 48 48 50 45 41 40 41 39 39 39 35 35 28 25 26 29 31
62 72 70 74 70 73 73 73 73 72 69 65 59 62 70 77 68 63 60 58 58 56 52 49 50 51 50 48 48 45 42 39 39 42 39 38 39 35 30 25 24 25 28 30
41 43 52 57 67 72 76 76 75 75 72 67 63 66 61 64 68 61 56 50 44 46 47 46 45 41 41 44 44 43 37 38 41 35 37 37 37 36 26 23 23 26 27 30
21 21 32 43 60 72 76 79 78 77 73 71 63 67 52 52 54 53 49 44 42 42 42 44 40 39 40 41 40 34 35 34 33 33 36 35 35 25 24 22 25 25 27 27
16 23 26 27 36 56 70 77 78 78 75 76 66 63 53 48 42 37 36 38 39 39 38 36 35 35 35 36 31 31 29 30 30 32 34 33 26 23 21 22 24 25 27 26
17 20 31 29 29 37 50 70 72 75 77 73 69 64 49 43 39 39 40 39 36 34 36 35 35 35 35 30 28 26 29 31 32 32 28 24 21 20 21 21 22 25 25 26
17 15 19 29 27 23 41 46 57 68 75 74 70 61 48 43 29 24 33 37 35 36 37 34 31 32 28 25 25 27 29 28 29 24 22 19 18 19 18 20 22 22 24 26
10 11 10 16 27 27 26 44 45 53 55 70 70 52 47 47 39 34 13 29 36 37 35 31 24 22 22 24 26 28 27 25 20 20 17 17 18 17 18 19 21 21 23 24
11 10 15 13 14 24 25 24 39 43 48 61 65 55 52 48 43 39 34 32 23 31 31 23 21 24 26 24 25 26 20 17 17 15 16 18 16 17 17 19 20 22 20 21
8 10 13 12 13 21 28 26 32 36 45 54 58 58 53 52 41 40 38 33 28 30 24 27 28 27 25 23 20 16 14 15 14 15 16 16 16 15 17 18 20 21 20 20
11 10 9 15 17 13 19 27 26 32 45 50 56 57 52 51 51 27 38 35 35 28 24 28 27 24 20 21 18 15 14 14 13 14 14 15 14 16 16 18 17 15 17 16
14 11 10 8 16 20 22 21 23 34 37 52 56 50 52 53 50 45 37 37 41 31 25 23 23 20 19 15 14 13 13 12 12 12 14 13 13 14 16 16 15 16 17 18
20 16 12 11 14 19 21 24 24 30 39 46 57 57 52 51 50 45 43 39 42 37 29 25 22 19 18 13 13 12 13 14 14 13 13 11 12 14 15 15 15 16 18 17
17 18 16 13 14 17 18 21 24 28 32 47 47 56 51 41 33 42 42 44 41 39 32 28 23 23 17 14 14 12 12 15 14 13 11 12 11 13 14 15 14 15 16 16
13 5 12 11 13 17 20 18 20 25 28 43 50 57 52 40 36 40 47 48 42 36 33 29 24 23 18 16 15 13 13 13 13 11 10 10 11 13 13 13 13 14 15 12
2 1 4 4 15 18 15 16 25 25 28 40 53 52 54 54 43 39 51 45 40 38 33 30 27 23 20 19 17 15 15 13 11 10 9 9 10 12 11 13 13 13 12 11
9 7 9 11 15 12 12 10 14 19 21 38 51 54 54 56 51 44 49 49 43 39 35 31 28 24 22 19 16 15 14 11 11 9 8 9 9 11 11 12 12 12 9 7
15 18 12 13 11 17 18 12 16 16 21 34 48 54 57 54 57 51 52 48 41 41 39 34 28 26 23 22 20 17 13 10 11 7 8 8 8 10 9 10 12 8 7 7
9 10 14 12 15 14 21 15 10 15 10 26 45 55 55 55 54 61 55 53 47 43 40 35 32 27 25 25 20 18 13 12 10 7 8 6 7 7 8 8 6 5 7 8
10 7 8 12 15 12 22 15 14 14 11 12 33 48 54 55 51 58 57 57 51 46 40 38 33 28 28 26 21 19 14 13 10 8 7 6 7 4 4 4 6 7 7 10
9 8 8 10 13 16 13 13 3 6 13 6 15 29 51 48 50 50 58 56 53 47 42 38 33 32 29 26 23 19 15 14 10 9 7 7 5 1 2 4 6 7 9 9
10 8 9 10 11 10 13 14 10 15 13 17 25 21 43 48 45 46 50 50 51 47 43 37 35 33 28 28 24 18 16 14 11 9 8 8 4 3 1 2 5 7 8 11
9 10 10 11 10 10 13 10 10 17 6 17 26 25 39 49 44 49 52 48 48 46 42 38 38 29 29 29 23 19 16 15 11 10 10 8 6 5 3 5 5 6 8 11
13 13 11 14 15 11 13 10 5 6 11 13 25 33 44 50 45 53 55 52 49 42 42 39 37 31 30 28 24 19 18 16 11 12 12 10 9 8 8 6 4 5 6 8
14 14 13 10 12 16 15 5 4 3 13 20 22 35 40 40 49 55 61 56 50 44 40 42 40 34 32 30 25 21 20 17 13 14 14 12 12 12 8 5 3 4 7 9
Wind_Direction
257 254 249 254 249 246 246 248 249 247 247 244 244 244 241 239 232 234 238 242 244 247 253 260 268 266 263 268 270 271 275 283 284 283 284 281 280 284 284 290 297 293 287 299
263 255 254 247 244 242 242 243 245 244 246 247 245 246 241 240 237 237 240 246 249 251 261 263 264 263 261 262 259 263 272 276 279 280 282 277 281 284 290 292 291 286 294 298
263 256 252 249 240 236 238 239 241 242 242 245 245 248 241 241 242 243 245 250 253 258 260 260 261 259 255 254 255 262 265 271 275 277 278 278 281 286 289 290 287 288 294 296
266 262 254 243 235 229 231 234 235 239 239 240 242 246 241 241 245 247 250 253 255 253 254 254 253 252 245 251 252 257 262 267 270 278 279 279 283 290 282 285 285 289 293 294
282 274 254 238 230 224 223 227 229 232 236 238 237 245 234 241 240 244 247 250 247 242 241 245 247 246 245 246 250 254 260 268 274 273 274 278 283 283 279 279 286 290 293 290
282 272 269 263 245 238 226 224 224 226 229 233 235 239 233 234 240 246 241 236 235 234 237 239 239 240 241 246 250 254 263 264 271 272 273 281 280 274 273 280 285 290 290 286
297 275 250 250 245 233 236 228 224 224 226 230 231 233 233 239 234 234 231 230 230 230 233 232 232 234 237 243 249 256 258 268 272 272 278 278 271 266 276 280 286 289 286 290
305 308 244 234 229 239 234 237 226 227 226 226 229 229 228 231 224 232 233 232 229 231 234 237 237 238 238 237 244 248 257 264 268 279 279 268 261 271 278 282 288 286 290 296
312 345 274 252 239 226 231 230 230 230 230 228 229 224 223 228 222 216 228 215 225 232 233 235 236 230 232 236 238 250 257 265 277 279 266 257 269 274 279 285 286 290 296 298
297 280 298 267 254 224 214 219 228 226 227 228 225 220 220 224 224 221 218 225 225 224 225 223 217 223 227 235 248 258 267 268 270 257 251 265 271 275 279 288 291 296 297 297
284 291 303 294 234 223 217 215 214 219 224 224 222 220 218 219 221 216 213 220 218 211 201 201 213 220 227 239 252 248 255 257 248 244 259 267 272 273 287 288 294 296 289 290
298 267 279 286 268 251 219 228 220 222 220 217 220 219 219 215 219 204 210 211 198 182 188 200 208 215 227 233 245 248 245 243 244 254 260 268 266 282 282 289 293 294 292 291
284 280 249 251 258 251 247 235 238 227 216 214 215 207 217 216 214 214 209 211 211 205 215 205 209 214 217 236 238 238 235 231 243 258 261 259 273 278 283 288 284 291 297 294
278 272 275 248 250 245 245 240 240 240 220 212 212 211 212 216 215 211 212 206 211 205 211 211 212 217 222 235 233 226 224 221 241 252 254 259 272 274 285 285 284 289 295 296
286 276 264 258 255 252 254 249 243 242 229 220 209 214 205 209 208 212 208 211 204 212 214 217 216 213 226 233 226 228 215 219 239 248 244 267 267 278 285 288 293 296 300 303
311 286 254 251 262 255 245 249 254 252 243 221 210 213 198 187 179 183 197 203 205 206 205 211 207 204 231 238 232 225 216 217 237 232 253 263 269 281 290 297 300 303 308 302
8 289 291 292 278 281 285 272 257 241 237 220 213 214 210 188 185 181 194 190 191 195 195 196 196 202 225 240 229 218 209 215 228 233 262 258 269 283 296 300 305 309 307 297
303 310 334 319 286 292 276 244 259 257 227 227 214 212 209 195 189 184 185 181 186 194 194 197 199 209 228 237 219 206 208 216 220 238 257 256 272 287 298 305 311 302 296 274
324 348 341 336 299 305 301 321 311 255 219 222 215 210 208 203 194 192 186 186 192 198 195 203 205 207 222 229 209 204 204 215 217 246 246 258 273 289 307 321 318 293 261 270
9 351 1 7 359 22 12 348 293 233 225 228 213 210 208 201 192 194 189 185 193 198 201 207 207 206 223 225 210 205 203 210 212 242 240 254 268 289 318 323 318 300 282 277
21 5 10 5 16 15 3 353 344 228 234 237 215 210 209 199 191 196 187 188 196 201 203 205 206 207 217 215 211 206 202 202 210 230 229 240 260 295 348 20 3 347 309 281
14 35 22 358 356 349 328 339 328 243 230 219 207 203 208 199 193 191 192 194 200 202 202 201 202 212 210 211 207 204 200 201 212 219 213 236 242 133 92 5 2 350 333 310
5 7 356 341 332 313 295 315 262 260 235 216 174 186 201 191 190 184 186 193 197 196 196 198 204 210 202 208 203 198 199 200 211 210 207 220 201 171 116 8 44 37 33 40
356 0 347 337 337 311 303 323 282 249 203 190 182 173 185 185 183 180 184 191 195 191 196 195 205 201 203 206 197 198 198 199 208 204 204 198 180 143 137 121 80 45 36 42
350 346 336 338 334 333 7 13 262 266 197 178 172 164 174 181 174 177 183 193 193 190 193 198 204 205 203 206 199 202 193 194 202 201 197 184 164 143 143 128 83 50 30 28
351 346 326 323 339 348 11 52 180 102 138 145 167 170 173 175 169 176 186 193 191 195 191 197 203 206 205 206 203 201 191 191 198 196 191 177 159 147 149 141 108 71 66 46
Height
5667 5669 5686 5691 5685 5698 5696 5703 5710 5717 5719 5723 5732 5744 5756 5760 5766 5772 5779 5786 5790 5793 5801 5803 5803 5804 5803 5803 5804 5800 5799 5801 5800 5798 5797 5795 5792 5792 5789 5786 5784 5783 5781 5779
5640 5648 5656 5659 5665 5674 5679 5686 5691 5699 5702 5710 5723 5727 5734 5742 5756 5766 5772 5777 5782 5786 5789 5792 5792 5792 5791 5794 5794 5792 5793 5793 5793 5792 5789 5787 5786 5785 5782 5779 5778 5777 5776 5773
5608 5623 5623 5630 5640 5651 5660 5667 5675 5681 5688 5697 5708 5707 5719 5731 5743 5753 5759 5766 5771 5776 5777 5779 5779 5778 5779 5781 5783 5784 5785 5787 5786 5784 5783 5781 5781 5779 5776 5774 5773 5771 5770 5768
5593 5603 5600 5604 5613 5627 5638 5650 5658 5664 5672 5685 5692 5690 5703 5720 5729 5738 5748 5756 5763 5763 5764 5765 5766 5766 5768 5770 5772 5775 5779 5780 5778 5778 5776 5776 5774 5773 5770 5768 5767 5767 5764 5761
5590 5588 5585 5587 5594 5601 5618 5629 5640 5649 5659 5668 5683 5679 5707 5710 5719 5730 5740 5747 5748 5748 5751 5754 5757 5757 5758 5760 5765 5770 5772 5773 5773 5771 5770 5770 5768 5766 5765 5763 5763 5761 5758 5756
5582 5581 5579 5581 5584 5591 5604 5612 5623 5631 5643 5649 5670 5676 5696 5704 5716 5723 5728 5731 5734 5738 5742 5746 5747 5749 5752 5755 5760 5763 5766 5766 5766 5765 5764 5763 5762 5760 5759 5758 5757 5755 5753 5751
5578 5575 5574 5578 5579 5584 5590 5600 5610 5619 5625 5645 5654 5663 5691 5697 5706 5710 5714 5719 5725 5730 5732 5734 5738 5742 5746 5751 5754 5758 5759 5759 5758 5758 5758 5756 5755 5755 5754 5753 5751 5749 5747 5745
5575 5568 5570 5571 5574 5580 5587 5592 5605 5609 5620 5635 5641 5657 5681 5690 5698 5700 5705 5711 5718 5722 5725 5729 5733 5738 5743 5746 5748 5750 5752 5752 5752 5752 5750 5750 5751 5750 5749 5747 5746 5744 5742 5738
5573 5570 5570 5568 5572 5574 5580 5583 5597 5606 5611 5621 5630 5662 5671 5677 5686 5693 5698 5705 5709 5713 5719 5725 5730 5735 5738 5740 5743 5744 5745 5746 5745 5745 5745 5746 5746 5745 5743 5742 5740 5738 5735 5732
5573 5571 5568 5566 5567 5570 5574 5581 5588 5592 5601 5616 5629 5648 5657 5665 5674 5684 5694 5696 5702 5707 5713 5720 5725 5728 5731 5735 5737 5739 5739 5739 5739 5740 5741 5741 5740 5739 5738 5736 5734 5732 5729 5727
5570 5569 5568 5567 5568 5567 5571 5574 5577 5586 5596 5609 5624 5636 5647 5659 5666 5676 5684 5691 5697 5702 5709 5714 5718 5722 5727 5729 5731 5731 5731 5733 5734 5735 5736 5736 5735 5734 5732 5731 5729 5727 5725 5723
5567 5567 5566 5565 5565 5567 5569 5571 5575 5579 5592 5602 5612 5626 5635 5649 5659 5669 5676 5684 5691 5696 5703 5708 5713 5717 5721 5724 5724 5725 5726 5728 5730 5731 5732 5731 5730 5730 5728 5727 5725 5723 5721 5718
5565 5564 5564 5564 5565 5564 5565 5568 5570 5575 5581 5591 5601 5620 5625 5638 5650 5661 5670 5677 5684 5692 5697 5703 5708 5712 5715 5718 5719 5721 5723 5725 5727 5727 5727 5727 5726 5725 5724 5722 5721 5719 5717 5715
5558 5560 5561 5561 5561 5561 5562 5565 5568 5570 5574 5584 5593 5607 5617 5629 5640 5653 5662 5669 5677 5686 5692 5698 5703 5707 5711 5713 5715 5716 5718 5720 5723 5723 5723 5723 5722 5721 5720 5718 5717 5715 5713 5711
5552 5553 5555 5555 5556 5556 5557 5558 5561 5563 5569 5571 5592 5596 5612 5622 5633 5644 5654 5662 5671 5679 5686 5693 5697 5703 5707 5709 5711 5712 5713 5717 5718 5719 5719 5719 5718 5717 5716 5714 5712 5711 5708 5706
5550 5550 5552 5552 5552 5551 5552 5554 5555 5558 5562 5567 5578 5583 5603 5617 5625 5634 5643 5652 5664 5672 5680 5688 5693 5699 5703 5706 5708 5709 5710 5713 5715 5715 5715 5715 5714 5714 5712 5711 5708 5706 5703 5702
5550 5550 5551 5552 5549 5548 5549 5550 5550 5551 5554 5559 5564 5575 5589 5608 5619 5629 5636 5646 5657 5666 5674 5682 5688 5694 5699 5701 5704 5705 5707 5709 5711 5712 5712 5711 5711 5710 5709 5707 5704 5702 5700 5698
5551 5548 5548 5548 5546 5545 5544 5544 5544 5545 5549 5550 5557 5568 5583 5600 5612 5624 5632 5643 5652 5660 5669 5677 5684 5689 5694 5698 5700 5702 5705 5705 5706 5708 5708 5708 5708 5707 5705 5703 5700 5698 5697 5696
5551 5548 5546 5545 5544 5543 5541 5540 5540 5538 5541 5540 5549 5560 5573 5591 5605 5618 5625 5639 5648 5657 5664 5672 5678 5684 5690 5694 5696 5698 5701 5701 5703 5704 5705 5705 5705 5704 5702 5699 5697 5695 5695 5694
5551 5548 5547 5543 5541 5539 5537 5535 5533 5533 5536 5534 5542 5550 5563 5581 5597 5608 5621 5634 5642 5651 5659 5667 5673 5681 5685 5690 5693 5694 5696 5698 5699 5701 5702 5703 5703 5702 5699 5697 5695 5694 5694 5693
5551 5549 5547 5543 5540 5539 5536 5534 5527 5530 5535 5532 5536 5544 5556 5574 5592 5599 5616 5628 5637 5646 5655 5662 5670 5676 5681 5686 5689 5691 5692 5694 5696 5698 5700 5700 5701 5699 5697 5696 5695 5693 5692 5691
5552 5548 5545 5543 5540 5539 5535 5533 5530 5529 5530 5531 5534 5540 5551 5568 5584 5597 5611 5623 5631 5641 5651 5660 5667 5672 5677 5682 5685 5688 5690 5692 5694 5696 5698 5699 5699 5697 5697 5696 5695 5693 5691 5688
5553 5549 5545 5543 5540 5535 5533 5530 5528 5527 5527 5529 5533 5539 5548 5566 5579 5594 5607 5617 5626 5638 5648 5656 5662 5669 5674 5678 5682 5686 5687 5690 5692 5694 5696 5697 5697 5696 5696 5696 5695 5694 5691 5688
5551 5548 5545 5541 5537 5533 5529 5527 5524 5522 5525 5527 5530 5536 5549 5564 5576 5590 5604 5613 5622 5635 5645 5651 5657 5665 5670 5675 5679 5683 5685 5688 5690 5692 5695 5696 5696 5695 5696 5697 5696 5695 5693 5689
5552 5548 5545 5541 5535 5532 5528 5525 5521 5520 5524 5527 5532 5538 5548 5560 5574 5588 5601 5609 5621 5632 5641 5648 5655 5661 5667 5672 5676 5679 5683 5686 5689 5691 5694 5695 5695 5695 5696 5697 5697 5696 5695 5692
5553 5549 5545 5541 5536 5531 5526 5524 5521 5523 5524 5529 5535 5541 5550 5561 5575 5587 5598 5606 5619 5627 5636 5642 5650 5656 5662 5667 5672 5676 5681 5684 5687 5690 5693 5694 5694 5695 5697 5698 5699 5698 5697 5694